Year,Month,Day,Hour,Minute,Value (Times are PST for temperature in C)
2018,05,03,00,00,10.20
2018,05,03,00,01,10.20
2018,05,03,00,02,10.20
2018,05,03,00,03,10.10
2018,05,03,00,04,10.10
2018,05,03,00,05,10.10
2018,05,03,00,06,10.10
2018,05,03,00,07,10.10
2018,05,03,00,08,10.10
2018,05,03,00,09,10.10
2018,05,03,00,10,10.10
2018,05,03,00,11,10.10
2018,05,03,00,12,10.10
2018,05,03,00,13,10.10
2018,05,03,00,14,10.10
2018,05,03,00,15,10.20
2018,05,03,00,16,10.20
2018,05,03,00,17,10.20
2018,05,03,00,18,10.20
2018,05,03,00,19,10.10
2018,05,03,00,20,10.10
2018,05,03,00,21,10.10
2018,05,03,00,22,10.10
2018,05,03,00,23,10.10
2018,05,03,00,24,10.10
2018,05,03,00,25,10.20
2018,05,03,00,26,10.20
2018,05,03,00,27,10.20
2018,05,03,00,28,10.20
2018,05,03,00,29,10.20
2018,05,03,00,30,10.20
2018,05,03,00,31,10.10
2018,05,03,00,32,10.10
2018,05,03,00,33,10.10
2018,05,03,00,34,10.10
2018,05,03,00,35,10.10
2018,05,03,00,36,10.10
2018,05,03,00,37,10.00
2018,05,03,00,38,10.00
2018,05,03,00,39,10.00
2018,05,03,00,40,10.00
2018,05,03,00,41,9.90
2018,05,03,00,42,9.90
2018,05,03,00,43,9.90
2018,05,03,00,44,9.90
2018,05,03,00,45,9.90
2018,05,03,00,46,9.90
2018,05,03,00,47,9.90
2018,05,03,00,48,9.90
2018,05,03,00,49,9.90
2018,05,03,00,50,9.90
2018,05,03,00,51,9.90
2018,05,03,00,52,9.90
2018,05,03,00,53,9.80
2018,05,03,00,54,9.80
2018,05,03,00,55,9.80
2018,05,03,00,56,9.80
2018,05,03,00,57,9.80
2018,05,03,00,58,9.80
2018,05,03,00,59,9.80
2018,05,03,01,00,9.80
2018,05,03,01,01,9.80
2018,05,03,01,02,9.70
2018,05,03,01,03,9.70
2018,05,03,01,04,9.70
2018,05,03,01,05,9.70
2018,05,03,01,06,9.70
2018,05,03,01,07,9.70
2018,05,03,01,08,9.70
2018,05,03,01,09,9.70
2018,05,03,01,10,9.70
2018,05,03,01,11,9.70
2018,05,03,01,12,9.70
2018,05,03,01,13,9.70
2018,05,03,01,14,9.70
2018,05,03,01,15,9.70
2018,05,03,01,16,9.70
2018,05,03,01,17,9.60
2018,05,03,01,18,9.60
2018,05,03,01,19,9.60
2018,05,03,01,20,9.60
2018,05,03,01,21,9.60
2018,05,03,01,22,9.60
2018,05,03,01,23,9.60
2018,05,03,01,24,9.60
2018,05,03,01,25,9.60
2018,05,03,01,26,9.60
2018,05,03,01,27,9.60
2018,05,03,01,28,9.60
2018,05,03,01,29,9.50
2018,05,03,01,30,9.50
2018,05,03,01,31,9.50
2018,05,03,01,32,9.40
2018,05,03,01,33,9.40
2018,05,03,01,34,9.40
2018,05,03,01,35,9.40
2018,05,03,01,36,9.40
2018,05,03,01,37,9.40
2018,05,03,01,38,9.30
2018,05,03,01,39,9.30
2018,05,03,01,40,9.30
2018,05,03,01,41,9.30
2018,05,03,01,42,9.30
2018,05,03,01,43,9.30
2018,05,03,01,44,9.30
2018,05,03,01,45,9.30
2018,05,03,01,46,9.30
2018,05,03,01,47,9.30
2018,05,03,01,48,9.20
2018,05,03,01,49,9.20
2018,05,03,01,50,9.20
2018,05,03,01,51,9.20
2018,05,03,01,52,9.20
2018,05,03,01,53,9.20
2018,05,03,01,54,9.10
2018,05,03,01,55,9.10
2018,05,03,01,56,9.10
2018,05,03,01,57,9.10
2018,05,03,01,58,9.10
2018,05,03,01,59,9.10
2018,05,03,02,00,9.10
2018,05,03,02,01,9.10
2018,05,03,02,02,9.10
2018,05,03,02,03,9.00
2018,05,03,02,04,9.00
2018,05,03,02,05,9.00
2018,05,03,02,06,9.00
2018,05,03,02,07,8.90
2018,05,03,02,08,8.90
2018,05,03,02,09,8.90
2018,05,03,02,10,8.90
2018,05,03,02,11,8.90
2018,05,03,02,12,8.90
2018,05,03,02,13,8.90
2018,05,03,02,14,8.90
2018,05,03,02,15,8.90
2018,05,03,02,16,8.90
2018,05,03,02,17,8.90
2018,05,03,02,18,8.90
2018,05,03,02,19,8.90
2018,05,03,02,20,8.90
2018,05,03,02,21,8.90
2018,05,03,02,22,8.90
2018,05,03,02,23,8.90
2018,05,03,02,24,8.80
2018,05,03,02,25,8.80
2018,05,03,02,26,8.80
2018,05,03,02,27,8.80
2018,05,03,02,28,8.80
2018,05,03,02,29,8.80
2018,05,03,02,30,8.80
2018,05,03,02,31,8.80
2018,05,03,02,32,8.80
2018,05,03,02,33,8.80
2018,05,03,02,34,8.80
2018,05,03,02,35,8.80
2018,05,03,02,36,8.80
2018,05,03,02,37,8.80
2018,05,03,02,38,8.80
2018,05,03,02,39,8.80
2018,05,03,02,40,8.80
2018,05,03,02,41,8.80
2018,05,03,02,42,8.80
2018,05,03,02,43,8.80
2018,05,03,02,44,8.70
2018,05,03,02,45,8.70
2018,05,03,02,46,8.70
2018,05,03,02,47,8.70
2018,05,03,02,48,8.70
2018,05,03,02,49,8.70
2018,05,03,02,50,8.70
2018,05,03,02,51,8.70
2018,05,03,02,52,8.70
2018,05,03,02,53,8.70
2018,05,03,02,54,8.70
2018,05,03,02,55,8.70
2018,05,03,02,56,8.70
2018,05,03,02,57,8.70
2018,05,03,02,58,8.70
2018,05,03,02,59,8.70
2018,05,03,03,00,8.70
2018,05,03,03,01,8.70
2018,05,03,03,02,8.70
2018,05,03,03,03,8.70
2018,05,03,03,04,8.70
2018,05,03,03,05,8.60
2018,05,03,03,06,8.60
2018,05,03,03,07,8.60
2018,05,03,03,08,8.60
2018,05,03,03,09,8.60
2018,05,03,03,10,8.60
2018,05,03,03,11,8.60
2018,05,03,03,12,8.60
2018,05,03,03,13,8.60
2018,05,03,03,14,8.60
2018,05,03,03,15,8.60
2018,05,03,03,16,8.60
2018,05,03,03,17,8.60
2018,05,03,03,18,8.60
2018,05,03,03,19,8.50
2018,05,03,03,20,8.50
2018,05,03,03,21,8.50
2018,05,03,03,22,8.50
2018,05,03,03,23,8.50
2018,05,03,03,24,8.50
2018,05,03,03,25,8.50
2018,05,03,03,26,8.50
2018,05,03,03,27,8.50
2018,05,03,03,28,8.50
2018,05,03,03,29,8.60
2018,05,03,03,30,8.60
2018,05,03,03,31,8.60
2018,05,03,03,32,8.60
2018,05,03,03,33,8.60
2018,05,03,03,34,8.60
2018,05,03,03,35,8.60
2018,05,03,03,36,8.60
2018,05,03,03,37,8.60
2018,05,03,03,38,8.60
2018,05,03,03,39,8.60
2018,05,03,03,40,8.60
2018,05,03,03,41,8.60
2018,05,03,03,42,8.60
2018,05,03,03,43,8.60
2018,05,03,03,44,8.60
2018,05,03,03,45,8.60
2018,05,03,03,46,8.60
2018,05,03,03,47,8.60
2018,05,03,03,48,8.60
2018,05,03,03,49,8.60
2018,05,03,03,50,8.60
2018,05,03,03,51,8.60
2018,05,03,03,52,8.50
2018,05,03,03,53,8.50
2018,05,03,03,54,8.50
2018,05,03,03,55,8.50
2018,05,03,03,56,8.50
2018,05,03,03,57,8.50
2018,05,03,03,58,8.40
2018,05,03,03,59,8.40
2018,05,03,04,00,8.40
2018,05,03,04,01,8.40
2018,05,03,04,02,8.40
2018,05,03,04,03,8.40
2018,05,03,04,04,8.40
2018,05,03,04,05,8.40
2018,05,03,04,06,8.40
2018,05,03,04,07,8.40
2018,05,03,04,08,8.40
2018,05,03,04,09,8.40
2018,05,03,04,10,8.40
2018,05,03,04,11,8.40
2018,05,03,04,12,8.40
2018,05,03,04,13,8.40
2018,05,03,04,14,8.40
2018,05,03,04,15,8.40
2018,05,03,04,16,8.40
2018,05,03,04,17,8.40
2018,05,03,04,18,8.40
2018,05,03,04,19,8.40
2018,05,03,04,20,8.40
2018,05,03,04,21,8.40
2018,05,03,04,22,8.30
2018,05,03,04,23,8.30
2018,05,03,04,24,8.30
2018,05,03,04,25,8.30
2018,05,03,04,26,8.30
2018,05,03,04,27,8.30
2018,05,03,04,28,8.30
2018,05,03,04,29,8.30
2018,05,03,04,30,8.30
2018,05,03,04,31,8.30
2018,05,03,04,32,8.30
2018,05,03,04,33,8.30
2018,05,03,04,34,8.30
2018,05,03,04,35,8.30
2018,05,03,04,36,8.30
2018,05,03,04,37,8.30
2018,05,03,04,38,8.20
2018,05,03,04,39,8.20
2018,05,03,04,40,8.20
2018,05,03,04,41,8.20
2018,05,03,04,42,8.20
2018,05,03,04,43,8.20
2018,05,03,04,44,8.20
2018,05,03,04,45,8.20
2018,05,03,04,46,8.20
2018,05,03,04,47,8.20
2018,05,03,04,48,8.20
2018,05,03,04,49,8.20
2018,05,03,04,50,8.20
2018,05,03,04,51,8.20
2018,05,03,04,52,8.20
2018,05,03,04,53,8.20
2018,05,03,04,54,8.20
2018,05,03,04,55,8.20
2018,05,03,04,56,8.20
2018,05,03,04,57,8.20
2018,05,03,04,58,8.20
2018,05,03,04,59,8.20
2018,05,03,05,00,8.20
2018,05,03,05,01,8.20
2018,05,03,05,02,8.20
2018,05,03,05,03,8.20
2018,05,03,05,04,8.20
2018,05,03,05,05,8.20
2018,05,03,05,06,8.20
2018,05,03,05,07,8.20
2018,05,03,05,08,8.20
2018,05,03,05,09,8.20
2018,05,03,05,10,8.20
2018,05,03,05,11,8.20
2018,05,03,05,12,8.20
2018,05,03,05,13,8.20
2018,05,03,05,14,8.20
2018,05,03,05,15,8.20
2018,05,03,05,16,8.20
2018,05,03,05,17,8.20
2018,05,03,05,18,8.20
2018,05,03,05,19,8.20
2018,05,03,05,20,8.20
2018,05,03,05,21,8.20
2018,05,03,05,22,8.20
2018,05,03,05,23,8.20
2018,05,03,05,24,8.20
2018,05,03,05,25,8.20
2018,05,03,05,26,8.30
2018,05,03,05,27,8.30
2018,05,03,05,28,8.30
2018,05,03,05,29,8.30
2018,05,03,05,30,8.30
2018,05,03,05,31,8.30
2018,05,03,05,32,8.30
2018,05,03,05,33,8.30
2018,05,03,05,34,8.30
2018,05,03,05,35,8.30
2018,05,03,05,36,8.30
2018,05,03,05,37,8.30
2018,05,03,05,38,8.30
2018,05,03,05,39,8.30
2018,05,03,05,40,8.30
2018,05,03,05,41,8.30
2018,05,03,05,42,8.30
2018,05,03,05,43,8.30
2018,05,03,05,44,8.20
2018,05,03,05,45,8.20
2018,05,03,05,46,8.20
2018,05,03,05,47,8.20
2018,05,03,05,48,8.20
2018,05,03,05,49,8.20
2018,05,03,05,50,8.20
2018,05,03,05,51,8.20
2018,05,03,05,52,8.20
2018,05,03,05,53,8.20
2018,05,03,05,54,8.20
2018,05,03,05,55,8.20
2018,05,03,05,56,8.20
2018,05,03,05,57,8.20
2018,05,03,05,58,8.20
2018,05,03,05,59,8.20
2018,05,03,06,00,8.20
2018,05,03,06,01,8.20
2018,05,03,06,02,8.20
2018,05,03,06,03,8.20
2018,05,03,06,04,8.20
2018,05,03,06,05,8.10
2018,05,03,06,06,8.10
2018,05,03,06,07,8.10
2018,05,03,06,08,8.10
2018,05,03,06,09,8.10
2018,05,03,06,10,8.10
2018,05,03,06,11,8.00
2018,05,03,06,12,8.00
2018,05,03,06,13,8.00
2018,05,03,06,14,8.00
2018,05,03,06,15,8.00
2018,05,03,06,16,8.00
2018,05,03,06,17,7.90
2018,05,03,06,18,7.90
2018,05,03,06,19,7.90
2018,05,03,06,20,7.90
2018,05,03,06,21,7.90
2018,05,03,06,22,7.90
2018,05,03,06,23,7.90
2018,05,03,06,24,8.00
2018,05,03,06,25,8.00
2018,05,03,06,26,8.00
2018,05,03,06,27,8.00
2018,05,03,06,28,8.00
2018,05,03,06,29,8.10
2018,05,03,06,30,8.00
2018,05,03,06,31,8.10
2018,05,03,06,32,8.10
2018,05,03,06,33,8.10
2018,05,03,06,34,8.10
2018,05,03,06,35,8.10
2018,05,03,06,36,8.10
2018,05,03,06,37,8.10
2018,05,03,06,38,8.10
2018,05,03,06,39,8.10
2018,05,03,06,40,8.10
2018,05,03,06,41,8.10
2018,05,03,06,42,8.10
2018,05,03,06,43,8.10
2018,05,03,06,44,8.10
2018,05,03,06,45,8.10
2018,05,03,06,46,8.10
2018,05,03,06,47,8.10
2018,05,03,06,48,8.10
2018,05,03,06,49,8.10
2018,05,03,06,50,8.10
2018,05,03,06,51,8.10
2018,05,03,06,52,8.10
2018,05,03,06,53,8.20
2018,05,03,06,54,8.20
2018,05,03,06,55,8.20
2018,05,03,06,56,8.20
2018,05,03,06,57,8.20
2018,05,03,06,58,8.30
2018,05,03,06,59,8.30
2018,05,03,07,00,8.30
2018,05,03,07,01,8.30
2018,05,03,07,02,8.30
2018,05,03,07,03,8.30
2018,05,03,07,04,8.30
2018,05,03,07,05,8.30
2018,05,03,07,06,8.30
2018,05,03,07,07,8.30
2018,05,03,07,08,8.30
2018,05,03,07,09,8.40
2018,05,03,07,10,8.40
2018,05,03,07,11,8.40
2018,05,03,07,12,8.40
2018,05,03,07,13,8.40
2018,05,03,07,14,8.50
2018,05,03,07,15,8.50
2018,05,03,07,16,8.50
2018,05,03,07,17,8.60
2018,05,03,07,18,8.60
2018,05,03,07,19,8.60
2018,05,03,07,20,8.60
2018,05,03,07,21,8.60
2018,05,03,07,22,8.70
2018,05,03,07,23,8.70
2018,05,03,07,24,8.70
2018,05,03,07,25,8.80
2018,05,03,07,26,8.80
2018,05,03,07,27,8.80
2018,05,03,07,28,8.80
2018,05,03,07,29,8.80
2018,05,03,07,30,8.80
2018,05,03,07,31,8.90
2018,05,03,07,32,8.90
2018,05,03,07,33,8.90
2018,05,03,07,34,8.90
2018,05,03,07,35,8.90
2018,05,03,07,36,8.90
2018,05,03,07,37,9.00
2018,05,03,07,38,9.00
2018,05,03,07,39,9.00
2018,05,03,07,40,9.00
2018,05,03,07,41,9.10
2018,05,03,07,42,9.10
2018,05,03,07,43,9.10
2018,05,03,07,44,9.20
2018,05,03,07,45,9.20
2018,05,03,07,46,9.20
2018,05,03,07,47,9.30
2018,05,03,07,48,9.30
2018,05,03,07,49,9.30
2018,05,03,07,50,9.30
2018,05,03,07,51,9.30
2018,05,03,07,52,9.40
2018,05,03,07,53,9.40
2018,05,03,07,54,9.40
2018,05,03,07,55,9.50
2018,05,03,07,56,9.50
2018,05,03,07,57,9.50
2018,05,03,07,58,9.60
2018,05,03,07,59,9.60
2018,05,03,08,00,9.60
2018,05,03,08,01,9.70
2018,05,03,08,02,9.70
2018,05,03,08,03,9.70
2018,05,03,08,04,9.80
2018,05,03,08,05,9.80
2018,05,03,08,06,9.80
2018,05,03,08,07,9.90
2018,05,03,08,08,9.90
2018,05,03,08,09,9.90
2018,05,03,08,10,9.90
2018,05,03,08,11,10.00
2018,05,03,08,12,10.00
2018,05,03,08,13,10.10
2018,05,03,08,14,10.10
2018,05,03,08,15,10.10
2018,05,03,08,16,10.20
2018,05,03,08,17,10.20
2018,05,03,08,18,10.30
2018,05,03,08,19,10.40
2018,05,03,08,20,10.50
2018,05,03,08,21,10.60
2018,05,03,08,22,10.70
2018,05,03,08,23,10.80
2018,05,03,08,24,10.80
2018,05,03,08,25,10.90
2018,05,03,08,26,10.90
2018,05,03,08,27,11.00
2018,05,03,08,28,11.00
2018,05,03,08,29,11.10
2018,05,03,08,30,11.10
2018,05,03,08,31,11.20
2018,05,03,08,32,11.20
2018,05,03,08,33,11.30
2018,05,03,08,34,11.30
2018,05,03,08,35,11.40
2018,05,03,08,36,11.60
2018,05,03,08,37,11.70
2018,05,03,08,38,11.90
2018,05,03,08,39,12.00
2018,05,03,08,40,12.20
2018,05,03,08,41,12.30
2018,05,03,08,42,12.40
2018,05,03,08,43,12.50
2018,05,03,08,44,12.60
2018,05,03,08,45,12.70
2018,05,03,08,46,12.70
2018,05,03,08,47,12.80
2018,05,03,08,48,12.80
2018,05,03,08,49,12.80
2018,05,03,08,50,12.80
2018,05,03,08,51,12.80
2018,05,03,08,52,12.80
2018,05,03,08,53,12.90
2018,05,03,08,54,12.90
2018,05,03,08,55,12.90
2018,05,03,08,56,12.90
2018,05,03,08,57,12.90
2018,05,03,08,58,12.90
2018,05,03,08,59,13.00
2018,05,03,09,00,13.00
2018,05,03,09,01,13.00
2018,05,03,09,02,13.00
2018,05,03,09,03,13.10
2018,05,03,09,04,13.10
2018,05,03,09,05,13.10
2018,05,03,09,06,13.10
2018,05,03,09,07,13.10
2018,05,03,09,08,13.10
2018,05,03,09,09,13.10
2018,05,03,09,10,13.10
2018,05,03,09,11,13.10
2018,05,03,09,12,13.20
2018,05,03,09,13,13.20
2018,05,03,09,14,13.20
2018,05,03,09,15,13.20
2018,05,03,09,16,13.20
2018,05,03,09,17,13.20
2018,05,03,09,18,13.20
2018,05,03,09,19,13.20
2018,05,03,09,20,13.20
2018,05,03,09,21,13.30
2018,05,03,09,22,13.30
2018,05,03,09,23,13.30
2018,05,03,09,24,13.30
2018,05,03,09,25,13.30
2018,05,03,09,26,13.40
2018,05,03,09,27,13.40
2018,05,03,09,28,13.40
2018,05,03,09,29,13.50
2018,05,03,09,30,13.50
2018,05,03,09,31,13.50
2018,05,03,09,32,13.60
2018,05,03,09,33,13.60
2018,05,03,09,34,13.70
2018,05,03,09,35,13.70
2018,05,03,09,36,13.70
2018,05,03,09,37,13.80
2018,05,03,09,38,13.80
2018,05,03,09,39,13.80
2018,05,03,09,40,13.90
2018,05,03,09,41,13.90
2018,05,03,09,42,14.00
2018,05,03,09,43,14.00
2018,05,03,09,44,14.10
2018,05,03,09,45,14.10
2018,05,03,09,46,14.20
2018,05,03,09,47,14.20
2018,05,03,09,48,14.20
2018,05,03,09,49,14.30
2018,05,03,09,50,14.30
2018,05,03,09,51,14.30
2018,05,03,09,52,14.30
2018,05,03,09,53,14.30
2018,05,03,09,54,14.40
2018,05,03,09,55,14.40
2018,05,03,09,56,14.40
2018,05,03,09,57,14.40
2018,05,03,09,58,14.50
2018,05,03,09,59,14.50
2018,05,03,10,00,14.50
2018,05,03,10,01,14.60
2018,05,03,10,02,14.60
2018,05,03,10,03,14.60
2018,05,03,10,04,14.60
2018,05,03,10,05,14.60
2018,05,03,10,06,14.60
2018,05,03,10,07,14.60
2018,05,03,10,08,14.70
2018,05,03,10,09,14.70
2018,05,03,10,10,14.70
2018,05,03,10,11,14.70
2018,05,03,10,12,14.80
2018,05,03,10,13,14.80
2018,05,03,10,14,14.80
2018,05,03,10,15,14.80
2018,05,03,10,16,14.80
2018,05,03,10,17,14.80
2018,05,03,10,18,14.80
2018,05,03,10,19,14.80
2018,05,03,10,20,14.90
2018,05,03,10,21,14.90
2018,05,03,10,22,14.90
2018,05,03,10,23,15.00
2018,05,03,10,24,15.00
2018,05,03,10,25,15.10
2018,05,03,10,26,15.10
2018,05,03,10,27,15.10
2018,05,03,10,28,15.20
2018,05,03,10,29,15.20
2018,05,03,10,30,15.20
2018,05,03,10,31,15.20
2018,05,03,10,32,15.30
2018,05,03,10,33,15.30
2018,05,03,10,34,15.30
2018,05,03,10,35,15.30
2018,05,03,10,36,15.30
2018,05,03,10,37,15.40
2018,05,03,10,38,15.40
2018,05,03,10,39,15.40
2018,05,03,10,40,15.50
2018,05,03,10,41,15.50
2018,05,03,10,42,15.60
2018,05,03,10,43,15.60
2018,05,03,10,44,15.70
2018,05,03,10,45,15.70
2018,05,03,10,46,15.70
2018,05,03,10,47,15.80
2018,05,03,10,48,15.80
2018,05,03,10,49,15.80
2018,05,03,10,50,15.80
2018,05,03,10,51,15.80
2018,05,03,10,52,15.80
2018,05,03,10,53,15.80
2018,05,03,10,54,15.70
2018,05,03,10,55,15.70
2018,05,03,10,56,15.80
2018,05,03,10,57,15.80
2018,05,03,10,58,15.80
2018,05,03,10,59,15.80
2018,05,03,11,00,15.90
2018,05,03,11,01,15.90
2018,05,03,11,02,15.90
2018,05,03,11,03,16.00
2018,05,03,11,04,16.00
2018,05,03,11,05,16.10
2018,05,03,11,06,16.10
2018,05,03,11,07,16.10
2018,05,03,11,08,16.20
2018,05,03,11,09,16.20
2018,05,03,11,10,16.20
2018,05,03,11,11,16.20
2018,05,03,11,12,16.20
2018,05,03,11,13,16.30
2018,05,03,11,14,16.30
2018,05,03,11,15,16.30
2018,05,03,11,16,16.40
2018,05,03,11,17,16.40
2018,05,03,11,18,16.50
2018,05,03,11,19,16.50
2018,05,03,11,20,16.60
2018,05,03,11,21,16.60
2018,05,03,11,22,16.60
2018,05,03,11,23,16.70
2018,05,03,11,24,16.70
2018,05,03,11,25,16.70
2018,05,03,11,26,16.80
2018,05,03,11,27,16.80
2018,05,03,11,28,16.80
2018,05,03,11,29,16.80
2018,05,03,11,30,16.90
2018,05,03,11,31,16.90
2018,05,03,11,32,16.90
2018,05,03,11,33,16.90
2018,05,03,11,34,16.90
2018,05,03,11,35,17.00
2018,05,03,11,36,17.00
2018,05,03,11,37,17.00
2018,05,03,11,38,17.00
2018,05,03,11,39,17.10
2018,05,03,11,40,17.10
2018,05,03,11,41,17.10
2018,05,03,11,42,17.20
2018,05,03,11,43,17.20
2018,05,03,11,44,17.30
2018,05,03,11,45,17.30
2018,05,03,11,46,17.30
2018,05,03,11,47,17.40
2018,05,03,11,48,17.40
2018,05,03,11,49,17.40
2018,05,03,11,50,17.40
2018,05,03,11,51,17.40
2018,05,03,11,52,17.40
2018,05,03,11,53,17.40
2018,05,03,11,54,17.40
2018,05,03,11,55,17.40
2018,05,03,11,56,17.30
2018,05,03,11,57,17.30
2018,05,03,11,58,17.20
2018,05,03,11,59,17.20
2018,05,03,12,00,17.20
2018,05,03,12,01,17.20
2018,05,03,12,02,17.20
2018,05,03,12,03,17.10
2018,05,03,12,04,17.10
2018,05,03,12,05,17.10
2018,05,03,12,06,17.10
2018,05,03,12,07,17.10
2018,05,03,12,08,17.10
2018,05,03,12,09,17.10
2018,05,03,12,10,17.10
2018,05,03,12,11,17.10
2018,05,03,12,12,17.10
2018,05,03,12,13,17.10
2018,05,03,12,14,17.10
2018,05,03,12,15,17.10
2018,05,03,12,16,17.10
2018,05,03,12,17,17.10
2018,05,03,12,18,17.10
2018,05,03,12,19,17.10
2018,05,03,12,20,17.10
2018,05,03,12,21,17.20
2018,05,03,12,22,17.20
2018,05,03,12,23,17.30
2018,05,03,12,24,17.30
2018,05,03,12,25,17.30
2018,05,03,12,26,17.30
2018,05,03,12,27,17.40
2018,05,03,12,28,17.40
2018,05,03,12,29,17.50
2018,05,03,12,30,17.50
2018,05,03,12,31,17.60
2018,05,03,12,32,17.60
2018,05,03,12,33,17.70
2018,05,03,12,34,17.70
2018,05,03,12,35,17.70
2018,05,03,12,36,17.70
2018,05,03,12,37,17.70
2018,05,03,12,38,17.70
2018,05,03,12,39,17.80
2018,05,03,12,40,17.80
2018,05,03,12,41,17.80
2018,05,03,12,42,17.80
2018,05,03,12,43,17.80
2018,05,03,12,44,17.90
2018,05,03,12,45,17.90
2018,05,03,12,46,18.00
2018,05,03,12,47,18.00
2018,05,03,12,48,18.10
2018,05,03,12,49,18.10
2018,05,03,12,50,18.00
2018,05,03,12,51,18.00
2018,05,03,12,52,17.90
2018,05,03,12,53,18.00
2018,05,03,12,54,18.00
2018,05,03,12,55,18.00
2018,05,03,12,56,18.00
2018,05,03,12,57,18.00
2018,05,03,12,58,18.20
2018,05,03,12,59,18.20
2018,05,03,13,00,18.30
2018,05,03,13,01,18.30
2018,05,03,13,02,18.30
2018,05,03,13,03,18.30
2018,05,03,13,04,18.30
2018,05,03,13,05,18.30
2018,05,03,13,06,18.40
2018,05,03,13,07,18.40
2018,05,03,13,08,18.50
2018,05,03,13,09,18.60
2018,05,03,13,10,18.70
2018,05,03,13,11,18.80
2018,05,03,13,12,18.80
2018,05,03,13,13,18.80
2018,05,03,13,14,18.80
2018,05,03,13,15,18.90
2018,05,03,13,16,18.90
2018,05,03,13,17,18.90
2018,05,03,13,18,18.80
2018,05,03,13,19,18.80
2018,05,03,13,20,18.70
2018,05,03,13,21,18.70
2018,05,03,13,22,18.70
2018,05,03,13,23,18.60
2018,05,03,13,24,18.50
2018,05,03,13,25,18.50
2018,05,03,13,26,18.50
2018,05,03,13,27,18.50
2018,05,03,13,28,18.50
2018,05,03,13,29,18.50
2018,05,03,13,30,18.40
2018,05,03,13,31,18.40
2018,05,03,13,32,18.50
2018,05,03,13,33,18.60
2018,05,03,13,34,18.70
2018,05,03,13,35,18.80
2018,05,03,13,36,18.80
2018,05,03,13,37,18.90
2018,05,03,13,38,18.90
2018,05,03,13,39,19.00
2018,05,03,13,40,19.00
2018,05,03,13,41,19.00
2018,05,03,13,42,19.00
2018,05,03,13,43,19.10
2018,05,03,13,44,19.10
2018,05,03,13,45,19.10
2018,05,03,13,46,19.30
2018,05,03,13,47,19.40
2018,05,03,13,48,19.60
2018,05,03,13,49,19.70
2018,05,03,13,50,19.70
2018,05,03,13,51,19.80
2018,05,03,13,52,19.80
2018,05,03,13,53,19.70
2018,05,03,13,54,19.50
2018,05,03,13,55,19.40
2018,05,03,13,56,19.30
2018,05,03,13,57,19.20
2018,05,03,13,58,19.20
2018,05,03,13,59,19.10
2018,05,03,14,00,19.00
2018,05,03,14,01,19.00
2018,05,03,14,02,18.90
2018,05,03,14,03,19.00
2018,05,03,14,04,19.10
2018,05,03,14,05,19.20
2018,05,03,14,06,19.30
2018,05,03,14,07,19.50
2018,05,03,14,08,19.60
2018,05,03,14,09,19.70
2018,05,03,14,10,19.70
2018,05,03,14,11,19.70
2018,05,03,14,12,19.70
2018,05,03,14,13,19.80
2018,05,03,14,14,19.70
2018,05,03,14,15,19.70
2018,05,03,14,16,19.70
2018,05,03,14,17,19.60
2018,05,03,14,18,19.70
2018,05,03,14,19,19.70
2018,05,03,14,20,19.70
2018,05,03,14,21,19.80
2018,05,03,14,22,19.80
2018,05,03,14,23,19.80
2018,05,03,14,24,19.80
2018,05,03,14,25,19.80
2018,05,03,14,26,19.80
2018,05,03,14,27,19.80
2018,05,03,14,28,19.80
2018,05,03,14,29,19.70
2018,05,03,14,30,19.70
2018,05,03,14,31,19.60
2018,05,03,14,32,19.50
2018,05,03,14,33,19.30
2018,05,03,14,34,19.20
2018,05,03,14,35,19.10
2018,05,03,14,36,19.10
2018,05,03,14,37,19.10
2018,05,03,14,38,19.10
2018,05,03,14,39,19.10
2018,05,03,14,40,19.10
2018,05,03,14,41,19.10
2018,05,03,14,42,19.00
2018,05,03,14,43,18.90
2018,05,03,14,44,18.80
2018,05,03,14,45,18.70
2018,05,03,14,46,18.60
2018,05,03,14,47,18.40
2018,05,03,14,48,18.40
2018,05,03,14,49,18.30
2018,05,03,14,50,18.30
2018,05,03,14,51,18.30
2018,05,03,14,52,18.30
2018,05,03,14,53,18.40
2018,05,03,14,54,18.40
2018,05,03,14,55,18.40
2018,05,03,14,56,18.50
2018,05,03,14,57,18.60
2018,05,03,14,58,18.70
2018,05,03,14,59,18.80
2018,05,03,15,00,18.90
2018,05,03,15,01,19.00
2018,05,03,15,02,19.00
2018,05,03,15,03,19.00
2018,05,03,15,04,19.00
2018,05,03,15,05,19.10
2018,05,03,15,06,19.10
2018,05,03,15,07,19.10
2018,05,03,15,08,19.00
2018,05,03,15,09,18.90
2018,05,03,15,10,18.70
2018,05,03,15,11,18.60
2018,05,03,15,12,18.50
2018,05,03,15,13,18.40
2018,05,03,15,14,18.40
2018,05,03,15,15,18.30
2018,05,03,15,16,18.30
2018,05,03,15,17,18.30
2018,05,03,15,18,18.40
2018,05,03,15,19,18.40
2018,05,03,15,20,18.40
2018,05,03,15,21,18.40
2018,05,03,15,22,18.50
2018,05,03,15,23,18.50
2018,05,03,15,24,18.50
2018,05,03,15,25,18.50
2018,05,03,15,26,18.40
2018,05,03,15,27,18.40
2018,05,03,15,28,18.40
2018,05,03,15,29,18.40
2018,05,03,15,30,18.40
2018,05,03,15,31,18.30
2018,05,03,15,32,18.30
2018,05,03,15,33,18.30
2018,05,03,15,34,18.30
2018,05,03,15,35,18.40
2018,05,03,15,36,18.40
2018,05,03,15,37,18.50
2018,05,03,15,38,18.50
2018,05,03,15,39,18.60
2018,05,03,15,40,18.60
2018,05,03,15,41,18.60
2018,05,03,15,42,18.60
2018,05,03,15,43,18.60
2018,05,03,15,44,18.60
2018,05,03,15,45,18.60
2018,05,03,15,46,18.60
2018,05,03,15,47,18.60
2018,05,03,15,48,18.50
2018,05,03,15,49,18.60
2018,05,03,15,50,18.60
2018,05,03,15,51,18.60
2018,05,03,15,52,18.60
2018,05,03,15,53,18.60
2018,05,03,15,54,18.60
2018,05,03,15,55,18.70
2018,05,03,15,56,18.70
2018,05,03,15,57,18.70
2018,05,03,15,58,18.70
2018,05,03,15,59,18.70
2018,05,03,16,00,18.70
2018,05,03,16,01,18.70
2018,05,03,16,02,18.70
2018,05,03,16,03,18.70
2018,05,03,16,04,18.70
2018,05,03,16,05,18.70
2018,05,03,16,06,18.70
2018,05,03,16,07,18.70
2018,05,03,16,08,18.70
2018,05,03,16,09,18.70
2018,05,03,16,10,18.70
2018,05,03,16,11,18.80
2018,05,03,16,12,18.80
2018,05,03,16,13,18.80
2018,05,03,16,14,18.80
2018,05,03,16,15,18.80
2018,05,03,16,16,18.90
2018,05,03,16,17,18.90
2018,05,03,16,18,18.90
2018,05,03,16,19,19.00
2018,05,03,16,20,19.10
2018,05,03,16,21,19.10
2018,05,03,16,22,19.10
2018,05,03,16,23,19.20
2018,05,03,16,24,19.20
2018,05,03,16,25,19.20
2018,05,03,16,26,19.20
2018,05,03,16,27,19.20
2018,05,03,16,28,19.20
2018,05,03,16,29,19.20
2018,05,03,16,30,19.20
2018,05,03,16,31,19.30
2018,05,03,16,32,19.30
2018,05,03,16,33,19.30
2018,05,03,16,34,19.40
2018,05,03,16,35,19.40
2018,05,03,16,36,19.40
2018,05,03,16,37,19.40
2018,05,03,16,38,19.40
2018,05,03,16,39,19.40
2018,05,03,16,40,19.40
2018,05,03,16,41,19.40
2018,05,03,16,42,19.50
2018,05,03,16,43,19.50
2018,05,03,16,44,19.60
2018,05,03,16,45,19.60
2018,05,03,16,46,19.70
2018,05,03,16,47,19.80
2018,05,03,16,48,19.80
2018,05,03,16,49,19.90
2018,05,03,16,50,19.90
2018,05,03,16,51,20.00
2018,05,03,16,52,20.00
2018,05,03,16,53,20.10
2018,05,03,16,54,20.10
2018,05,03,16,55,20.10
2018,05,03,16,56,20.20
2018,05,03,16,57,20.20
2018,05,03,16,58,20.20
2018,05,03,16,59,20.30
2018,05,03,17,00,20.30
2018,05,03,17,01,20.30
2018,05,03,17,02,20.30
2018,05,03,17,03,20.30
2018,05,03,17,04,20.30
2018,05,03,17,05,20.30
2018,05,03,17,06,20.40
2018,05,03,17,07,20.30
2018,05,03,17,08,20.30
2018,05,03,17,09,20.30
2018,05,03,17,10,20.30
2018,05,03,17,11,20.40
2018,05,03,17,12,20.40
2018,05,03,17,13,20.40
2018,05,03,17,14,20.40
2018,05,03,17,15,20.40
2018,05,03,17,16,20.40
2018,05,03,17,17,20.40
2018,05,03,17,18,20.40
2018,05,03,17,19,20.40
2018,05,03,17,20,20.30
2018,05,03,17,21,20.30
2018,05,03,17,22,20.30
2018,05,03,17,23,20.20
2018,05,03,17,24,20.20
2018,05,03,17,25,20.20
2018,05,03,17,26,20.20
2018,05,03,17,27,20.20
2018,05,03,17,28,20.10
2018,05,03,17,29,20.10
2018,05,03,17,30,20.10
2018,05,03,17,31,20.10
2018,05,03,17,32,20.10
2018,05,03,17,33,20.10
2018,05,03,17,34,20.10
2018,05,03,17,35,20.10
2018,05,03,17,36,20.20
2018,05,03,17,37,20.20
2018,05,03,17,38,20.10
2018,05,03,17,39,20.10